This demonstration page uses our WeatherBlox Daily Observations layout. Learn more.

Left ArrowRight Arrow

36.19886, -115.1175

Hourly Observations for October 13, 2020

Temp ( °F °C ) Dew Point ( °F °C ) Humidity (%) Winds ( mph kmh ) Pressure ( in mb ) Visibility ( mi km ) Precip ( " mm )
12:53 am 00:53 Clear 71 21.7 33 0.6 25 25 W 6 9 30.02 1017 10 16 0.00 0.00
1:53 am 01:53 Clear 70 21.1 26 -3.3 19 19 WNW 8 13 30.03 1017 10 16 0.00 0.00
2:53 am 02:53 Clear 69 20.6 26 -3.3 20 20 WNW 8 13 30.03 1017 10 16 0.00 0.00
3:53 am 03:53 Clear 67 19.4 29 -1.7 24 24 Calm 30.03 1017 10 16 0.00 0.00
4:53 am 04:53 Clear 64 17.8 29 -1.7 27 27 NNW 6 9 30.05 1018 10 16 0.00 0.00
5:53 am 05:53 Clear 68 20 19 -7.2 15 15 NNW 8 13 30.06 1018 10 16 0.00 0.00
6:53 am 06:53 Sunny 66 18.9 21 -6.1 18 18 NW 7 11 30.08 1019 10 16 0.00 0.00
7:53 am 07:53 Sunny 69 20.6 22 -5.6 17 17 SSW 5 7 30.10 1019 10 16 0.00 0.00
8:53 am 08:53 Sunny 74 23.3 21 -6.1 14 14 Calm 30.12 1020 10 16 0.00 0.00
9:53 am 09:53 Sunny 78 25.6 24 -4.4 13 13 Calm 30.13 1020 10 16 0.00 0.00
10:53 am 10:53 Sunny 81 27.2 24 -4.4 12 12 Calm 30.11 1020 10 16 0.00 0.00
11:53 am 11:53 Sunny 84 28.9 26 -3.3 12 12 SE 6 9 30.09 1019 10 16 0.00 0.00
12:53 pm 12:53 Sunny 87 30.6 26 -3.3 11 11 VRB 5 7 30.06 1018 10 16 0.00 0.00
1:53 pm 13:53 Sunny 89 31.7 26 -3.3 10 10 E 3 6 30.03 1017 10 16 0.00 0.00
2:53 pm 14:53 Sunny 90 32.2 25 -3.9 9 9 VRB 3 6 30.01 1016 10 16 0.00 0.00
3:53 pm 15:53 Sunny 92 33.3 25 -3.9 9 9 ESE 3 6 29.99 1016 10 16 0.00 0.00
4:53 pm 16:53 Sunny 93 33.9 25 -3.9 8 8 VRB 3 6 29.98 1015 10 16 0.00 0.00
5:53 pm 17:53 Sunny 91 32.8 25 -3.9 9 9 Calm 29.96 1015 10 16 0.00 0.00
6:53 pm 18:53 Clear 87 30.6 25 -3.9 10 10 Calm 29.97 1015 10 16 0.00 0.00
7:53 pm 19:53 Clear 82 27.8 33 0.6 17 17 W 6 9 29.99 1016 10 16 0.00 0.00
8:53 pm 20:53 Clear 78 25.6 33 0.6 19 19 NW 6 9 30.01 1016 10 16 0.00 0.00
9:53 pm 21:53 Clear 75 23.9 32 0 21 21 NW 7 11 30.02 1017 10 16 0.00 0.00
10:53 pm 22:53 Clear 73 22.8 31 -0.6 21 21 NW 6 9 30.02 1017 10 16 0.00 0.00
11:53 pm 23:53 Clear 72 22.2 33 0.6 24 24 WNW 5 7 30.01 1016 10 16 0.00 0.00

Powered by AerisWeather